Knob Noster, MO

12:17 AM CDT on August 25, 2016 (GMT -0500)
Whiteman Air Force Base

Weather History for KSZL - October, 2013

Change the Weather History Date:

Thursday, October 24, 2013

  Actual Average Record
Temperature  
Mean Temperature 37 °F -  
Max Temperature 44 °F 63 °F 82 °F (2012)
Min Temperature 28 °F 45 °F 26 °F (2006)
Degree Days  
Heating Degree Days 28    
Moisture  
Dew Point 28 °F    
Average Humidity 67    
Maximum Humidity 91    
Minimum Humidity 40    
Precipitation  
Precipitation 0.00 in - - ()
Sea Level Pressure  
Sea Level Pressure 30.35 in    
Wind  
Wind Speed 6 mph (NNW)    
Max Wind Speed 16 mph    
Max Gust Speed 22 mph    
Visibility 8 miles    
Events      
Averages and records for this station are not official NWS values.
T = Trace of Precipitation, MM = Missing Value Source: NWS Daily Summary

Daily Weather History Graph

Daily Weather History Graph

Search for Another Location

Airport or City:

Trip Planner

Search our weather history database for the weather conditions in past years. The results will help you decide how hot, cold, wet, or windy it might be!

Date:

Astronomy

Oct. 24, 2013 Rise Set
Actual Time 7:32 AM CDT 6:23 PM CDT
Civil Twilight 7:05 AM CDT 6:50 PM CDT
Nautical Twilight 6:34 AM CDT 7:21 PM CDT
Astronomical Twilight 6:03 AM CDT 7:52 PM CDT
Moon 10:49 PM CDT (10/24) 12:32 PM CDT (10/24)
Length of Visible Light 11h 44m
Length of Day
10h 50m
Waning Gibbous, 71% of the Moon is Illuminated
Oct 24
Waning Gibbous
Oct 26
Last Quarter
Nov 3
New
Nov 9
First Quarter
Nov 17
Full

Hourly Weather History & Observations

Time (CDT) Temp. Windchill Dew Point Humidity Pressure Visibility Wind Dir Wind Speed Gust Speed Precip Events Conditions
12:58 AM 40.6 °F - 35.1 °F 80% 30.17 in 8.0 mi Calm Calm - N/A   Mostly Cloudy
1:58 AM 36.7 °F - 34.0 °F 90% 30.20 in 10.0 mi Calm Calm - N/A   Scattered Clouds
2:58 AM 36.3 °F 30.8 °F 34.0 °F 91% 30.21 in 10.0 mi NNW 6.9 mph - N/A   Overcast
3:58 AM 38.7 °F 33.6 °F 34.9 °F 86% 30.23 in 10.0 mi NW 6.9 mph - N/A   Mostly Cloudy
4:58 AM 37.0 °F 31.6 °F 34.7 °F 91% 30.24 in 10.0 mi North 6.9 mph - N/A   Mostly Cloudy
5:58 AM 37.0 °F 33.3 °F 33.6 °F 87% 30.27 in 10.0 mi NNW 4.6 mph - N/A   Scattered Clouds
6:58 AM 38.1 °F 32.3 °F 34.0 °F 85% 30.30 in 10.0 mi North 8.1 mph - N/A   Mostly Cloudy
7:58 AM 39.2 °F 37.0 °F 35.6 °F 87% 30.35 in 10.0 mi NW 3.5 mph - N/A   Scattered Clouds
8:58 AM 41.0 °F 35.8 °F 37.4 °F 87% 30.35 in 10.0 mi North 8.1 mph - N/A   Scattered Clouds
9:58 AM 42.8 °F 36.2 °F 37.4 °F 81% 30.36 in 10.0 mi NNW 12.7 mph 19.6 mph N/A   Clear
10:58 AM 44.6 °F 37.4 °F 24.8 °F 46% 30.36 in 10.0 mi North 16.1 mph 21.9 mph N/A   Clear
11:58 AM 44.6 °F 37.4 °F 24.8 °F 46% 30.36 in 10.0 mi North 16.1 mph 21.9 mph N/A   Clear
12:58 PM 44.6 °F 37.4 °F 24.8 °F 46% 30.37 in 10.0 mi North 16.1 mph 21.9 mph N/A   Clear
1:58 PM 44.6 °F 37.4 °F 24.8 °F 46% 30.37 in 10.0 mi North 16.1 mph 21.9 mph N/A   Clear
2:58 PM 44.6 °F 37.4 °F 24.8 °F 46% 30.37 in 10.0 mi North 16.1 mph 21.9 mph N/A   Clear
3:58 PM 44.6 °F 37.4 °F 24.8 °F 46% 30.37 in 10.0 mi North 16.1 mph 21.9 mph N/A   Clear
4:58 PM 44.6 °F 37.4 °F 24.8 °F 46% 30.37 in 10.0 mi North 16.1 mph 21.9 mph N/A   Clear
5:58 PM 44.6 °F 37.4 °F 24.8 °F 46% 30.37 in 10.0 mi North 16.1 mph 21.9 mph N/A   Clear
6:17 PM 46.4 °F 43.5 °F 23.0 °F 40% 30.34 in 10.0 mi North 5.8 mph - N/A   Clear
6:57 PM 44.6 °F 41.4 °F 30.2 °F 57% 30.38 in 10.0 mi North 5.8 mph - N/A   Clear
7:58 PM 39.9 °F - 24.3 °F 54% 30.38 in 10.0 mi North 1.2 mph - N/A   Clear
7:59 PM 41.0 °F - 24.8 °F 53% 30.38 in 10.0 mi North 1.2 mph - N/A   Clear
8:43 PM 37.4 °F - 24.8 °F 60% 30.40 in 3.0 mi Calm Calm - N/A   Haze
8:48 PM 37.4 °F - 24.8 °F 60% 30.40 in 3.0 mi Calm Calm - N/A   Haze
8:58 PM 38.3 °F - 24.6 °F 58% 30.40 in 3.0 mi Calm Calm - N/A   Haze
9:58 PM 32.9 °F 29.8 °F 25.7 °F 75% 30.41 in 4.0 mi SW 3.5 mph - N/A   Haze
10:58 PM 29.5 °F 25.9 °F 24.8 °F 83% 30.46 in 2.5 mi SSW 3.5 mph - N/A   Haze
11:08 PM 30.2 °F - 24.8 °F 80% 30.43 in 3.0 mi SSW 2.3 mph - N/A   Haze
11:53 PM 28.4 °F - 24.8 °F 86% 30.43 in 4.0 mi SSW 2.3 mph - N/A   Haze
11:58 PM 28.2 °F 24.4 °F 24.1 °F 84% 30.46 in 4.0 mi South 3.5 mph - N/A   Haze